Theta_e
319 316 320 315 310 310 313 311 311 310 311 313 318 320 320 316 320 318 320 325 327 336 338 340 342 341 340 340 339 339 339 339 340 341 341 341 340 340 340 340 340 340 339 339 336 333 328 333 332
317 317 320 310 310 312 307 308 310 308 308 318 319 318 319 320 315 316 321 328 331 336 338 339 340 340 339 339 338 338 338 338 340 340 340 340 338 338 338 338 337 335 334 336 336 337 329 331 330
316 322 312 314 311 308 308 309 307 309 314 317 319 316 319 316 314 316 320 329 332 335 337 338 338 338 337 336 337 337 337 338 338 337 337 337 336 336 336 336 336 334 335 335 335 333 331 331 331
324 311 308 313 314 312 308 309 311 315 314 314 318 319 310 309 316 318 327 329 333 335 336 337 337 336 336 336 335 335 336 336 334 334 334 334 333 333 333 333 333 333 333 333 333 333 331 329 332
317 307 312 312 313 310 308 310 311 311 312 313 315 319 312 311 313 322 328 328 332 333 334 336 335 335 334 334 334 334 333 333 332 331 331 330 330 330 329 328 329 329 329 329 329 331 331 330 332
314 308 311 311 310 310 309 310 308 309 308 312 315 315 310 311 314 323 327 328 330 330 332 333 334 334 333 333 333 333 333 331 330 330 329 327 326 325 325 325 325 325 325 325 327 330 329 328 330
314 310 313 312 311 311 310 310 310 309 308 310 312 313 305 308 316 322 326 327 327 329 330 332 332 332 331 331 331 331 330 329 327 326 324 323 322 322 321 320 321 322 321 322 323 327 329 326 328
313 312 316 312 313 314 313 314 314 308 308 309 310 309 307 305 317 321 322 325 325 326 331 331 331 330 329 329 329 329 328 325 322 320 318 318 317 317 316 315 315 315 315 317 318 320 321 322 324
311 315 316 316 314 313 314 315 313 312 313 307 304 307 305 311 317 319 320 321 323 325 329 330 329 328 328 327 325 322 317 314 316 319 317 315 314 311 309 308 308 308 308 308 309 310 315 320 323
315 316 316 314 313 315 313 313 313 313 312 310 306 307 310 312 314 313 314 316 321 324 326 328 327 326 324 322 322 320 319 318 319 317 314 309 306 305 302 302 303 303 304 304 303 307 313 318 321
316 320 316 315 315 314 314 314 313 313 313 310 309 308 311 311 312 312 312 316 318 321 322 322 323 323 323 321 319 317 315 315 315 311 303 301 298 294 296 296 295 296 295 296 297 301 308 313 315
316 316 317 315 314 315 315 314 314 311 311 311 309 309 311 311 310 310 310 313 317 317 317 316 320 320 320 318 316 314 312 310 309 303 299 294 293 293 293 293 293 292 292 292 293 295 301 306 306
314 315 314 316 315 314 313 313 312 310 310 308 305 306 310 310 310 309 309 312 313 313 314 314 313 317 318 316 313 310 308 305 303 297 295 293 293 293 292 293 292 292 292 292 292 293 294 299 303
312 314 314 313 314 313 314 313 310 310 309 308 305 304 305 309 309 307 307 308 311 311 311 313 312 313 315 314 310 306 303 300 298 295 293 293 293 293 292 292 292 292 292 292 292 292 292 293 295
309 311 310 310 311 312 311 312 312 311 308 310 307 305 303 303 309 307 307 308 310 310 310 310 309 310 309 309 305 302 297 295 294 293 292 292 292 292 292 292 291 291 291 291 291 291 292 292 293
309 309 311 310 311 311 312 315 311 308 308 309 308 306 304 302 305 308 307 307 308 308 308 308 306 307 304 304 302 297 294 293 292 292 292 292 291 291 291 291 291 290 291 291 291 291 291 291 291
307 310 309 310 310 311 311 312 311 308 306 306 305 306 305 302 302 307 308 307 307 307 305 305 305 304 300 298 297 294 292 292 291 291 291 291 291 290 290 290 290 290 290 291 291 291 291 290 290
309 308 308 309 309 309 310 309 308 305 305 298 298 298 305 303 302 305 307 306 306 306 305 304 301 299 298 296 293 292 291 291 290 290 290 290 290 290 289 289 290 290 290 290 291 291 291 290 290
306 307 307 307 307 309 309 309 309 306 299 298 297 297 298 303 301 304 306 305 304 304 302 301 297 294 295 293 291 290 289 289 289 289 289 289 289 289 288 289 289 289 289 290 290 290 290 290 290
305 306 307 306 306 306 306 307 299 299 297 297 297 296 296 299 300 303 304 303 302 302 300 298 297 294 294 292 291 290 289 288 288 288 288 288 288 287 288 288 288 288 289 289 289 289 289 289 289
305 306 306 307 307 305 305 305 302 298 297 296 295 295 295 297 298 299 300 300 299 298 297 296 295 294 294 293 291 290 289 287 287 286 287 287 286 286 287 287 287 287 288 288 288 289 289 288 288
307 306 307 307 306 309 305 308 302 299 298 296 294 294 294 296 297 297 296 295 295 295 295 296 294 293 293 293 291 290 288 287 286 286 287 286 286 286 286 286 286 286 287 287 287 287 287 289 287
303 301 303 303 305 305 305 308 303 300 300 296 293 293 293 293 295 295 294 295 295 295 295 295 293 292 291 290 291 289 288 287 286 286 286 286 286 286 286 286 286 285 285 286 286 287 287 286 287
298 299 299 299 301 306 305 308 302 302 301 296 294 293 293 292 292 292 293 293 293 294 294 293 292 291 290 290 289 289 288 287 286 286 285 285 285 285 285 285 285 284 284 284 285 285 286 286 285
298 302 309 305 303 310 302 306 301 296 294 295 294 293 292 292 292 292 291 291 292 292 292 292 291 290 290 289 289 288 288 287 286 285 285 285 285 284 284 284 284 284 284 284 283 284 284 284 284
297 302 309 305 305 304 302 304 300 290 288 290 291 292 292 291 291 291 291 290 290 291 291 290 290 290 290 289 289 288 288 287 286 286 285 285 284 284 284 283 283 283 283 283 283 283 283 283 283
303 305 306 307 307 304 305 298 295 296 295 293 293 293 292 291 290 290 290 290 290 290 290 290 290 290 289 289 288 288 288 287 286 285 285 284 284 283 283 283 283 282 282 282 282 282 282 282 282
304 302 305 307 308 310 306 304 302 297 297 295 293 291 289 291 291 290 289 289 289 289 289 289 289 289 288 288 288 287 287 287 286 285 284 284 283 283 283 282 282 282 281 281 281 281 281 281 281
303 305 303 303 304 304 304 301 298 296 295 295 293 292 290 289 290 290 289 289 289 289 289 289 288 288 287 288 287 287 286 286 285 285 284 283 283 282 282 283 282 281 281 281 281 281 281 281 281
300 300 303 304 300 298 298 300 296 296 295 295 294 294 292 291 290 288 288 288 288 288 288 288 288 287 287 287 287 286 286 285 285 284 283 283 283 282 282 282 284 282 281 280 280 281 281 281 280
Wind_Speed
9 6 5 3 3 4 4 8 3 4 3 3 1 3 5 3 2 4 10 11 26 31 23 21 24 26 23 24 24 23 24 24 24 24 23 21 19 19 21 22 20 19 17 17 17 16 18 18 17
12 11 4 2 4 2 6 5 8 11 7 3 3 3 1 2 2 6 10 19 32 31 25 24 26 26 24 24 24 23 21 23 24 25 25 25 25 23 20 20 21 22 20 17 17 15 16 13 14
13 6 4 4 5 7 6 7 11 5 7 5 5 3 2 5 2 13 7 28 32 29 26 25 26 25 25 23 23 22 21 22 22 22 22 23 22 23 23 24 24 23 19 18 16 14 13 12 14
7 3 4 4 11 8 8 5 3 2 2 3 3 5 3 3 6 8 29 30 31 27 26 25 24 23 23 23 21 19 19 19 19 20 20 21 20 19 18 17 19 20 19 17 16 15 14 15 14
3 2 1 4 11 6 7 4 2 3 3 5 7 6 5 2 8 25 30 30 32 28 26 23 23 22 22 22 21 20 17 18 18 19 18 19 18 16 17 18 17 17 17 16 15 14 14 14 14
2 3 2 8 9 3 6 9 5 5 6 3 2 8 4 6 21 25 30 29 30 28 24 22 22 22 23 22 21 21 22 21 20 20 21 20 20 19 18 17 17 16 16 14 13 14 17 14 15
6 4 6 5 6 6 6 7 6 9 10 8 5 7 2 4 22 28 32 30 29 26 25 23 23 23 23 24 22 21 21 24 23 23 22 21 20 18 17 16 16 16 16 14 14 14 15 15 16
5 4 4 6 10 11 4 3 4 7 8 2 4 7 5 7 22 29 30 30 28 25 24 25 26 26 25 24 23 24 27 28 27 25 24 22 19 17 17 16 15 15 15 15 15 15 15 15 17
4 3 5 7 8 6 3 1 3 2 2 4 5 1 3 34 30 29 26 25 25 25 26 27 30 29 28 30 33 34 31 29 27 23 18 17 16 18 18 16 16 16 15 15 15 14 16 15 14
6 5 10 5 12 5 1 4 2 3 4 2 3 7 20 30 28 22 18 19 24 26 28 32 34 35 36 36 35 32 29 23 19 14 11 15 17 18 19 17 16 15 15 14 14 14 15 14 15
6 12 12 10 6 3 5 5 1 1 3 6 8 10 11 18 18 20 21 26 21 26 29 33 39 39 37 36 33 29 25 21 14 13 15 16 17 17 16 15 13 14 12 13 14 15 15 15 15
5 9 20 3 10 2 4 2 4 6 6 1 7 20 15 14 14 19 22 28 28 26 29 31 38 39 36 35 30 27 23 17 15 15 15 16 17 15 15 14 14 13 14 15 13 14 14 16 16
6 15 8 15 14 8 8 10 8 6 11 6 14 14 17 16 16 18 22 27 26 25 29 34 35 37 35 33 29 25 21 17 16 16 15 15 15 14 14 14 13 14 14 14 16 16 16 15 15
4 16 19 12 12 8 8 11 8 8 6 8 13 15 14 15 18 17 23 25 28 27 30 35 33 35 34 31 28 24 20 18 17 17 15 14 13 13 13 13 13 13 13 14 15 16 17 18 17
5 11 9 5 6 7 7 7 10 15 9 10 13 12 13 14 20 25 32 32 36 30 34 35 34 33 31 30 26 23 21 19 18 18 16 15 14 14 14 14 14 14 13 14 15 16 17 18 17
3 2 4 7 8 6 8 14 7 10 7 11 10 9 14 14 20 20 24 27 31 28 33 34 32 31 28 27 25 24 22 20 18 18 17 16 15 14 15 15 15 15 15 15 16 17 18 18 17
3 4 5 3 7 5 9 7 7 8 8 10 8 8 9 9 11 21 27 32 33 31 30 31 31 30 27 25 24 23 21 20 19 17 17 16 15 14 14 15 16 15 16 16 17 18 17 19 19
9 5 4 5 5 6 7 7 6 4 4 6 6 7 3 9 12 21 27 30 32 33 33 31 30 29 28 27 25 22 21 19 18 17 16 16 15 14 14 15 16 15 17 17 18 20 19 20 21
3 4 7 2 5 3 6 9 12 2 8 7 7 7 6 5 5 20 24 29 31 31 30 31 30 29 30 29 29 25 23 21 19 16 15 14 14 14 14 15 15 15 16 18 19 20 22 22 22
10 10 14 6 9 7 9 9 5 7 4 5 5 7 7 4 8 13 22 25 29 33 33 31 32 33 30 30 26 24 25 19 18 16 14 13 14 14 14 15 16 15 17 18 19 21 23 21 14
13 14 9 12 5 6 3 4 4 5 6 7 7 5 6 5 10 11 15 20 27 31 34 34 33 34 33 30 25 22 20 20 19 17 16 14 13 13 13 13 14 15 14 16 15 16 16 11 8
12 9 13 9 5 6 4 4 2 4 5 6 6 7 7 7 9 11 13 16 22 27 31 32 32 33 31 30 27 29 27 24 22 21 18 16 13 13 13 13 13 13 12 12 12 11 11 13 13
5 3 5 2 4 4 4 1 2 7 3 1 4 5 6 7 7 9 10 16 21 27 29 30 29 29 28 26 27 29 27 23 24 22 20 19 16 14 13 13 12 12 11 11 10 11 10 10 9
6 4 5 4 2 2 11 9 3 4 3 3 2 2 4 6 8 8 14 19 21 23 27 28 28 26 25 24 25 26 28 27 28 25 22 19 17 16 13 13 12 12 12 11 11 11 10 9 9
1 5 1 1 1 5 2 5 1 4 2 3 6 4 2 3 6 7 7 12 19 23 26 27 27 25 24 24 26 26 27 28 28 27 24 22 19 17 15 13 13 12 11 11 10 11 11 10 10
5 4 4 7 5 3 1 5 2 3 2 5 4 4 4 4 4 5 6 12 17 21 25 26 27 24 23 24 25 25 26 27 26 24 23 21 19 17 15 14 13 12 10 10 10 10 10 9 9
2 3 2 3 1 2 4 3 2 2 4 3 3 3 4 4 4 5 7 11 14 18 23 25 27 24 23 24 25 26 26 25 26 23 20 20 19 17 15 14 13 11 10 10 9 9 9 8 8
1 2 2 2 5 4 1 4 3 6 6 5 4 4 1 3 3 3 5 8 9 13 16 22 23 23 23 24 24 24 25 25 25 24 22 20 20 18 17 14 12 11 10 9 8 8 7 7 7
3 3 2 1 1 3 3 3 2 6 7 9 6 5 5 4 5 5 7 10 11 12 14 18 19 21 20 21 21 23 26 26 25 24 22 20 19 16 15 12 10 8 9 8 8 7 7 6 6
3 1 2 2 2 2 1 2 1 5 6 5 5 6 6 6 6 5 7 9 10 10 11 15 16 19 19 19 22 26 28 26 25 23 21 19 17 15 14 12 10 9 8 9 8 7 6 5 4
Wind_Direction
203 198 149 71 72 66 252 250 252 250 250 206 47 150 193 81 138 199 154 165 162 154 151 150 142 134 132 130 127 129 125 120 115 110 108 108 117 124 127 124 117 108 103 98 100 100 98 101 108
185 153 97 89 113 181 248 234 222 230 217 105 87 114 272 127 109 136 136 166 161 153 154 155 145 141 136 134 129 128 124 121 114 113 107 105 104 108 112 118 119 111 108 112 105 99 115 116 113
166 149 108 150 176 205 220 213 229 256 208 186 155 57 93 156 344 158 173 162 161 158 156 154 148 142 142 143 137 132 131 123 120 116 113 111 108 107 109 107 110 117 124 123 121 116 107 122 117
155 30 17 152 224 242 207 195 193 105 328 264 152 111 82 287 176 173 157 162 162 160 160 157 153 148 144 143 146 142 133 125 124 122 120 113 109 109 123 121 121 120 124 120 118 124 115 129 123
91 74 201 238 245 247 236 225 190 204 272 225 166 193 124 281 155 148 156 161 165 164 164 160 155 155 154 151 147 143 140 134 130 125 120 118 116 126 124 122 121 116 117 106 115 124 124 122 118
118 122 153 233 251 287 263 252 155 218 224 262 170 133 170 164 145 149 158 160 165 168 165 167 162 159 154 149 150 149 142 136 129 121 120 118 117 119 121 125 118 116 111 120 129 136 129 134 130
155 143 209 209 255 273 227 232 204 237 236 228 157 140 201 227 156 153 158 159 164 169 169 164 162 157 154 153 152 148 141 133 128 119 115 115 117 120 120 113 112 107 109 111 127 131 143 135 144
150 141 209 221 241 268 222 217 262 177 240 96 127 181 204 209 157 154 156 160 166 173 171 166 161 155 153 152 151 143 133 126 123 119 122 125 123 116 111 113 111 107 104 103 109 119 131 143 155
138 194 206 228 174 233 275 121 283 121 123 52 8 73 229 156 154 148 150 157 167 173 175 165 160 158 150 145 138 133 122 117 129 146 147 145 143 133 122 111 107 106 104 105 106 114 131 151 158
179 213 217 222 218 234 133 183 228 149 150 46 46 26 126 142 148 146 156 157 163 165 163 167 160 158 151 146 148 147 150 149 146 154 170 146 139 133 123 112 105 105 107 104 112 127 135 146 147
207 230 235 252 258 230 263 312 278 202 228 204 190 161 154 156 161 160 165 170 168 165 163 163 158 159 161 157 156 153 153 152 155 160 159 153 145 137 135 132 124 126 122 126 123 126 131 134 141
244 225 235 280 235 266 259 232 246 192 234 44 169 165 157 171 176 173 171 172 173 165 164 160 163 162 162 161 159 158 159 158 155 163 162 158 150 145 140 136 132 131 127 129 134 135 131 133 137
237 242 248 243 248 249 275 261 239 220 238 100 128 161 179 181 182 178 173 177 173 165 165 169 167 166 167 166 164 162 163 162 161 165 167 170 164 154 148 139 137 134 133 131 129 132 133 134 138
242 234 255 251 254 244 227 252 159 241 224 182 154 185 189 189 181 163 170 171 175 171 171 176 175 170 171 170 169 166 164 164 166 167 167 170 168 162 157 150 144 138 136 132 130 129 133 131 136
247 269 266 239 235 236 196 247 228 242 197 223 189 188 193 198 174 184 181 178 176 175 175 176 178 175 173 170 169 167 165 165 166 166 169 172 175 169 162 156 152 149 144 137 133 129 129 129 131
279 252 218 206 201 229 170 246 233 243 188 228 228 194 191 183 189 184 178 173 175 169 172 175 177 176 171 171 169 167 164 165 164 165 167 171 172 167 160 155 151 148 149 148 139 135 129 124 126
233 236 215 293 211 202 187 255 239 228 191 236 266 219 191 154 166 175 176 176 174 170 166 168 178 177 171 168 168 163 161 164 165 167 170 172 170 166 164 158 152 150 149 149 146 138 139 129 121
217 221 227 190 219 198 229 254 270 178 136 66 36 20 139 174 182 164 168 172 172 172 171 171 170 176 171 165 161 159 159 159 161 166 170 170 169 168 167 159 154 158 156 149 151 144 138 131 126
210 234 234 249 231 225 245 248 230 85 55 63 43 27 27 93 127 152 153 157 160 164 162 165 161 168 171 162 155 153 153 157 157 165 168 169 168 168 167 160 157 157 159 151 155 147 144 135 135
232 246 253 263 264 200 243 238 80 52 57 50 31 22 19 80 111 123 138 146 155 160 162 163 169 169 172 168 164 160 160 159 155 156 158 164 164 164 161 160 157 157 155 155 157 153 145 148 163
235 236 250 243 262 214 160 296 155 55 72 55 25 358 18 59 114 118 122 136 148 154 163 165 170 172 174 173 168 162 158 148 146 153 155 157 159 158 159 158 156 156 160 157 163 173 169 153 150
247 228 231 226 183 235 152 265 257 112 78 47 17 14 19 46 78 105 116 120 139 150 164 170 174 174 176 177 175 168 160 155 164 159 157 158 160 157 157 154 151 149 151 149 154 165 183 174 149
231 183 182 176 175 131 198 157 215 133 150 34 357 11 28 37 72 85 101 128 144 160 165 168 169 170 172 175 177 174 170 169 159 158 155 152 156 157 155 154 151 148 148 143 139 141 148 160 166
148 85 42 55 98 238 203 190 240 186 178 168 191 81 65 63 72 75 95 128 145 159 161 164 166 170 173 177 180 181 173 163 160 160 158 155 154 153 155 154 152 145 142 138 137 136 133 129 126
147 125 169 322 202 239 198 177 139 334 341 137 150 134 84 66 90 96 98 113 147 160 165 167 169 169 177 181 183 182 176 174 172 166 163 160 158 157 155 157 151 147 142 138 134 131 128 125 123
200 209 178 203 194 218 169 202 220 260 341 72 92 124 114 93 102 106 115 128 150 166 169 169 172 168 176 181 184 182 180 179 178 176 171 166 162 158 156 155 151 145 142 136 134 132 126 123 118
137 257 38 104 141 94 143 82 36 61 72 76 116 99 110 117 117 125 123 135 144 161 169 173 170 169 172 173 171 177 184 182 177 173 172 167 164 161 162 159 152 148 147 143 140 133 130 129 123
142 143 151 213 193 199 121 150 171 179 161 146 155 162 185 157 142 125 125 136 140 156 166 171 170 168 167 167 170 179 185 180 175 171 170 169 166 164 161 160 158 154 153 151 148 141 138 139 129
163 179 190 61 144 157 141 246 145 167 173 168 170 174 176 174 166 158 155 154 151 150 160 167 171 168 168 172 174 181 178 175 171 170 168 167 166 168 166 165 159 157 159 158 159 154 151 150 143
91 85 161 170 213 73 72 237 111 157 141 136 143 150 149 165 167 149 139 147 145 151 157 173 178 177 178 178 179 177 174 174 171 169 164 162 163 169 166 181 191 175 192 184 174 165 168 167 164